Location: Belfast
(54.5830°N, 5.9330°W)
Time: 12:42:45
(UTC+01:00)

ISS - Pass Details

Date: 19 May 2018
Orbit: 402 x 407 km, 51.6° (Epoch: 20 May)

Event Time Altitude Azimuth Distance (km) Brightness Sun altitude
Exits shadow 03:02:56 - 264° (W) 1,722 -0.9 -12.5°
Reaches altitude 10° 03:03:35 10° 262° (W) 1,459 -1.3 -12.5°
Maximum altitude 03:06:45 47° 187° (S) 541 -3.6 -12.3°
Drops below altitude 10° 03:09:54 10° 112° (ESE) 1,457 -1.0 -12.1°
Sets 03:12:01 0° 107° (ESE) 2,316 0.2 -11.9°
